This demonstration page uses our WeatherBlox Daily Observations layout. Learn more.

41.55636, -103.73856

Hourly Observations for May 27, 2019

Temp ( °F °C ) Dew Point ( °F °C ) Humidity (%) Winds ( mph kmh ) Pressure ( in mb ) Visibility ( mi km ) Precip ( " mm )
12:58 am 00:58 Mostly Clear with Light Rain 58 14.4 53 11.9 85 85 E 12 19 29.75 1008 8 12.87472 0.02 0.508
1:58 am 01:58 Mostly Clear with Light Rain 54 12.2 48 8.7 79 79 SE 20 31 29.81 1010 10 16.0934 0.07 1.778
2:58 am 02:58 Mostly Clear with Showers 53 11.5 46 7.8 78 78 NNE 10 17 29.83 1010 10 16.0934 0.01 0.254
3:58 am 03:58 undefined 53 11.4 47 8.1 80 80 E 13 20 29.78 1009 10 16.0934 0 0
4:58 am 04:58 undefined 50 9.9 46 7.5 85 85 SSE 7 11 29.79 1009 10 16.0934 0 0
5:58 am 05:58 undefined 49 9.4 46 7.5 88 88 S 12 19 29.75 1008 10 16.0934 0 0
6:58 am 06:58 undefined 48 9.1 45 7.1 87 87 SW 6 9 29.76 1008 10 16.0934 0 0
7:58 am 07:58 undefined 48 9 44 6.9 87 87 SW 12 19 29.73 1007 10 16.0934 0 0
8:58 am 08:58 undefined 47 8.3 43 6.2 87 87 WSW 13 20 29.75 1008 10 16.0934 0 0
9:58 am 09:58 undefined 47 8.2 43 6.1 87 87 E 8 13 29.78 1009 10 16.0934 0 0
10:58 am 10:58 undefined 46 7.5 44 6.4 93 93 ENE 9 15 29.77 1008 10 16.0934 0 0
11:58 am 11:58 Partly Cloudy with Fog 49 9.4 48 8.8 96 96 NE 10 17 29.78 1009 5 8.0467 0 0
12:58 pm 12:58 Partly Cloudy with Fog 50 9.9 49 9.3 96 96 NNE 8 13 29.78 1009 5 8.0467 0 0
1:58 pm 13:58 Partly Cloudy with Fog 51 10.5 50 9.9 96 96 NE 8 13 29.79 1009 1 1.60934 0 0
2:58 pm 14:58 undefined 53 11.7 52 11 96 96 E 10 17 29.78 1009 10 16.0934 0 0
3:58 pm 15:58 undefined 55 12.9 51 10.3 84 84 ENE 8 13 29.77 1008 10 16.0934 0 0
4:58 pm 16:58 undefined 55 12.5 50 10.1 85 85 E 16 26 29.77 1008 10 16.0934 0 0
5:58 pm 17:58 undefined 55 12.7 51 10.5 87 87 ENE 13 20 29.76 1008 10 16.0934 0 0
6:58 pm 18:58 undefined 54 12.2 49 9.7 85 85 E 15 24 29.75 1008 10 16.0934 0 0
7:58 pm 19:58 undefined 55 12.8 49 9.6 81 81 ENE 13 20 29.73 1007 10 16.0934 0 0
8:58 pm 20:58 undefined 57 13.8 50 10.1 79 79 E 23 37 29.69 1005 10 16.0934 0 0
9:58 pm 21:58 undefined 54 12.2 49 9.6 84 84 ENE 23 37 29.67 1005 10 16.0934 0 0
10:58 pm 22:58 Partly Cloudy with Heavy Thunderstorms 48 9 42 5.3 78 78 W 21 33 29.78 1009 10 16.0934 0.07 1.778
11:58 pm 23:58 Partly Cloudy with Light Rain/Snow 44 6.9 42 5.8 93 93 N 6 9 29.75 1008 10 16.0934 0.54 13.716

Powered by AerisWeather